SL-16 DEB, 31795

Orbit data source: Space-Track

SL-16 DEB, 31795 is space debris in LEO originally from a launch on Fri, 29 Jun 2007 UTC launched from the Tyuratam Missile And Space Complex (TTMTR). Debris objects in space refer to the collection of defunct objects orbiting the Earth. Examples of debris include non-operational satellites, rocket bodies, and fragments generated from explosions, collisions, or faulty payload assembly.

Loading next visibility...
Identifier
31795, 2007-029D
Orbit
LEO
Country
Flag of CISCIS
Related business
Manufacturer
Yuzhnoe
Mission
Spacecraft
Bus & Motor
SEP MOTOR COVER, Unknown motor
Mass
~1 kg wet, ~1 kg dry
Launch date (UTC)
2007-06-29 (19 years ago)
Launch vehicle
Unknown
Launch site
Tyuratam Missile And Space Complex (TTMTR)
Object type
Payload
Rocket body
Debris
Shape & HBR
Cone, 0.5 m
Radar Cross Section
0.635 m², Medium (>0.1 m² and < 1m²)

Expand to show TLE details & history
Last TLE update: 2 days ago

TLE from 2 days ago
0 SL-16 DEB
1 31795U 07029D   26171.40997262  .00000010  00000-0  50421-4 0  9996
2 31795  70.9493 296.9385 0220620  98.2189 321.8140 13.68633373947664
Epoch: 2026-06-20T09:50Z
TLE epoch observation values (Epoch: 2026-06-20T09:50:21.634Z)
Latitude
53.75903°
Longitude
-91.33162°
Altitude
886.119 km
Speed
7.478 km/s
True Right ascension
21h 39m 32s
True Declination
53° 35' 52"
Sunlit
Object was in daylight at epoch
Visualization orbit readout
Latitude
Unknown
Longitude
Unknown
Altitude
Unknown
Speed
Unknown
Apparent Right ascension
Unknown
Apparent Declination
Unknown
Sunlit
N/A
Visualization observer readout
Local Sidereal Time
00:50:43
Azimuth
Unknown
Elevation
Unknown
Doppler factor
Unknown
Orbital elements
Apogee altitude
1,165.286 km
Perigee altitude
839.625 km
Semi-major axis
7,380.592 km
Eccentricity
0.02206
Inclination
70.9493°
RAAN
296.9385°
Arg. of periapsis
98.2189°
True anomaly
320.21669°
Mean anomaly
321.814°
Eccentric anomaly
321.01882°
Mean motion
3.423 °/min
Orbital period
105.17 mins
BSTAR
0.000050421
Loading maneuver chart data...
Computing Atmospheric mass density...

Documentation

Showing up to 5 results
|